Presure
114 114 112 100 118 106 82 94 104 111 107 87 96 117 107 87 91 112 112 112 100 108 115 116 105 113 113 113 111 109 125 119 123 83 117 125 125 94 121 127 124 107 111
120 101 99 97 103 105 110 104 112 110 107 95 108 114 89 114 122 125 90 84 131 93 129 116 120 118 100 123 117 126 123 124 109 118 115 111 129 119 106 125 107 108 128
129 123 93 102 106 117 111 165 88 218 129 118 117 112 100 122 112 113 105 96 98 104 106 123 125 126 121 120 118 123 120 132 132 131 139 104 121 131 134 96 130 132 140
84 233 226 228 185 125 192 199 244 166 183 207 251 78 214 212 168 176 173 107 125 127 132 122 149 131 141 121 134 130 90 140 116 147 129 94 130 117 115 142 134 132 117
219 198 199 204 224 204 176 266 245 152 157 135 86 159 101 129 254 109 139 255 223 229 134 119 143 135 120 135 133 144 132 147 144 124 135 127 148 141 142 83 151 113 152
139 212 220 118 220 115 223 252 172 146 120 185 89 118 107 164 129 274 241 217 283 256 242 134 123 172 131 166 130 113 150 129 91 144 150 150 155 151 149 145 160 155 134
216 211 177 210 217 229 234 115 253 144 124 230 230 112 234 245 247 171 194 224 225 204 242 230 220 131 220 246 203 101 80 175 186 149 154 104 145 230 183 217 165 246 247
211 216 181 213 210 200 250 262 259 186 183 240 113 178 230 161 236 241 241 220 213 223 169 215 195 226 238 188 228 183 186 252 76 249 162 211 206 251 210 207 219 236 181
210 207 202 207 207 222 137 255 120 140 215 234 235 222 227 228 213 224 227 212 234 216 216 155 135 171 247 158 248 253 258 188 256 253 239 231 205 230 226 218 134 209 221
205 202 195 203 215 212 254 275 244 234 225 237 220 223 250 223 233 228 211 220 205 221 219 216 217 207 219 192 239 235 214 238 231 218 171 193 213 130 240 238 195 196 192
191 160 200 203 220 229 250 272 276 221 242 222 227 229 243 257 226 225 224 219 217 206 193 159 220 226 202 208 222 232 219 216 191 168 132 196 197 219 202 193 185 199 196
193 198 202 206 207 243 250 240 263 226 230 229 225 275 264 240 246 219 221 212 217 213 225 207 204 225 233 224 201 206 206 165 194 124 195 109 189 184 183 171 216 189 191
198 194 207 191 237 238 258 270 234 229 228 224 251 262 252 232 240 233 217 227 217 207 210 208 206 211 198 209 207 197 208 195 112 176 186 191 187 182 179 172 209 197 191
143 203 204 233 243 228 281 254 223 207 225 232 250 231 249 228 242 221 234 208 214 219 216 211 204 191 215 198 183 116 138 109 171 110 186 174 185 179 193 227 165 204 192
197 212 231 237 245 249 263 221 210 222 228 227 247 228 243 228 233 225 218 208 214 212 214 194 126 201 195 202 195 186 177 187 180 185 178 186 170 234 240 211 183 199 183
219 232 247 268 288 275 246 216 215 217 226 248 256 223 222 228 216 226 197 222 191 196 201 201 213 201 126 189 187 173 97 207 202 183 175 182 231 214 217 204 183 186 181
221 151 270 286 238 258 228 209 218 221 219 254 259 223 233 227 221 224 204 201 184 198 216 201 189 182 183 174 108 213 190 196 189 179 177 232 223 241 211 202 186 186 183
272 225 268 267 256 221 219 217 209 217 234 245 257 230 225 218 218 217 205 189 188 203 186 185 193 189 169 174 181 162 195 177 198 181 174 220 217 179 209 185 193 172 173
284 316 271 258 238 223 217 213 209 217 257 232 240 242 229 223 212 219 194 204 181 185 192 183 174 196 175 181 188 200 174 190 167 179 187 169 164 195 213 196 180 179 179
324 269 242 238 228 215 210 212 206 248 231 225 233 225 229 236 229 235 201 199 190 177 176 191 174 179 176 177 178 175 178 185 172 173 162 183 182 201 192 187 181 183 176
283 248 239 227 211 204 213 205 259 233 233 231 228 227 226 230 208 242 221 198 195 191 177 179 188 198 172 177 180 187 190 180 181 181 191 154 181 163 203 186 181 172 177
238 243 222 212 205 212 207 212 252 218 222 236 224 216 227 230 244 234 212 207 195 194 195 188 177 173 170 181 164 155 164 189 167 169 194 199 192 198 174 176 171 180 185
204 225 215 202 206 210 199 250 233 214 217 232 219 212 236 219 229 215 211 206 201 186 194 188 189 175 180 185 187 170 175 182 184 173 180 179 167 163 191 177 168 167 183
228 218 204 212 204 210 216 267 222 217 225 217 211 207 227 217 213 213 203 204 200 194 186 190 174 161 182 191 188 177 162 184 189 182 161 177 185 178 177 181 171 170 169
167 213 204 191 203 213 218 243 206 223 214 214 206 208 203 212 208 199 203 194 187 186 194 185 182 181 187 189 182 182 187 179 188 191 199 169 164 183 184 181 185 167 184
215 202 206 192 200 207 208 266 211 210 202 215 209 203 214 211 199 204 197 192 187 190 184 185 179 179 185 177 185 187 162 177 181 171 160 177 170 175 198 168 173 171 189
Wind_Speed
55 53 54 43 59 49 30 38 39 50 47 34 34 54 40 33 37 45 45 48 45 51 56 56 42 49 47 48 48 43 57 50 54 28 46 54 54 32 56 56 56 54 53
59 46 46 43 46 48 51 43 51 49 49 45 51 57 18 50 55 56 40 34 62 39 61 55 57 56 31 61 51 62 58 56 40 50 55 45 61 49 40 59 59 56 64
64 63 25 50 53 60 55 90 36 54 68 60 60 57 49 66 51 52 47 35 43 47 45 60 61 62 58 58 53 62 55 68 67 63 71 45 55 62 67 35 63 66 74
18 54 56 56 49 58 72 60 49 57 48 57 47 17 59 40 66 90 50 51 64 70 70 58 80 65 72 54 68 66 27 73 50 79 66 43 62 57 53 76 68 65 54
61 59 64 67 59 64 70 51 49 68 57 46 33 73 30 71 43 56 69 47 52 59 74 54 79 69 54 65 62 73 62 77 74 57 66 58 80 72 76 30 86 59 85
68 62 60 30 62 65 51 53 80 67 61 65 38 60 56 73 74 35 40 58 36 43 48 74 57 87 67 95 63 46 78 61 36 75 84 85 91 85 83 77 93 88 65
63 63 73 68 64 59 53 49 49 60 27 44 47 33 45 43 38 63 54 49 43 57 42 48 59 68 70 47 57 51 22 73 74 59 84 43 82 52 78 67 45 33 25
65 62 64 66 67 52 65 56 47 53 51 38 24 55 41 33 30 37 39 55 57 46 64 59 64 52 42 48 53 57 54 35 24 37 37 60 59 29 41 62 45 27 63
66 61 65 69 70 63 43 57 28 23 44 38 38 44 42 42 51 48 45 55 32 50 51 65 71 61 24 69 23 22 23 41 25 26 26 32 37 30 33 35 65 31 21
67 63 70 72 69 65 62 53 39 38 39 34 48 48 37 44 45 45 54 45 60 36 40 43 38 53 33 36 23 22 41 21 20 29 34 55 30 57 27 21 39 35 34
75 59 72 72 71 74 58 46 39 41 30 43 41 43 37 37 43 46 45 48 49 60 64 60 32 26 55 43 27 15 20 22 36 45 67 37 34 26 27 36 44 33 33
79 76 75 69 66 64 56 42 35 37 32 33 43 33 35 39 48 51 58 54 54 54 46 57 55 23 21 17 40 28 23 27 35 30 33 34 40 42 45 39 26 39 37
79 82 77 63 64 59 53 35 33 32 31 35 31 35 39 43 51 58 53 53 54 54 51 48 47 36 45 28 29 34 22 29 26 49 39 37 39 42 45 50 31 30 32
58 85 76 65 56 55 42 33 31 46 33 32 35 41 46 43 52 48 57 47 55 53 47 40 40 33 30 39 40 23 30 35 48 41 35 49 42 45 35 30 55 26 29
88 82 70 63 58 51 38 36 40 33 32 31 42 47 51 47 50 52 53 53 56 49 45 45 50 39 42 32 28 35 38 34 40 41 37 43 56 31 29 31 34 29 34
86 77 65 68 53 41 34 33 35 36 32 30 45 48 46 49 45 53 40 59 45 47 46 48 38 33 30 36 32 38 34 25 30 34 41 32 22 37 26 28 31 30 34
78 43 69 50 46 33 30 37 33 33 31 32 43 49 53 49 52 55 48 48 40 49 46 45 37 36 36 43 33 22 33 28 21 27 33 25 18 25 27 29 30 31 35
72 58 49 41 30 33 28 31 35 31 30 30 28 52 52 49 45 55 55 42 44 55 37 34 39 41 40 42 38 43 29 30 26 23 35 20 14 37 26 27 29 34 35
63 44 42 29 28 28 28 33 32 32 31 31 27 35 52 51 42 58 50 51 44 42 41 37 33 44 40 40 39 31 28 20 39 23 24 46 50 20 22 25 29 34 37
44 36 33 27 26 28 33 27 32 28 29 30 27 28 32 45 51 48 57 55 52 41 37 44 40 42 38 36 31 30 26 28 42 37 52 12 13 18 23 25 30 34 36
36 35 26 26 29 34 26 27 25 27 29 26 28 28 29 32 38 46 56 60 59 55 41 42 44 39 39 38 37 37 33 24 22 26 25 56 19 49 17 21 29 32 34
34 29 28 27 32 26 27 27 27 28 27 25 26 27 26 29 35 41 46 55 54 56 49 45 47 41 38 41 42 51 47 35 43 41 28 25 29 27 27 31 30 32 39
36 29 26 30 29 27 29 21 26 28 26 25 25 23 27 29 32 41 44 48 50 46 45 46 49 44 45 46 45 36 30 37 41 43 26 27 46 48 35 30 37 38 41
34 29 30 27 30 24 20 26 24 24 24 24 24 22 30 35 32 41 42 41 38 42 45 47 40 45 47 49 44 41 45 36 44 30 53 34 44 40 39 41 40 42 42
34 30 31 35 29 17 15 26 23 26 22 28 28 28 30 32 33 31 37 36 40 44 51 50 49 47 50 48 45 39 43 37 43 44 46 43 52 49 47 44 53 45 54
36 35 33 35 30 19 15 27 26 24 23 29 28 27 35 29 29 32 34 38 43 49 48 49 46 44 47 41 46 43 49 37 34 41 52 46 50 48 52 45 47 51 57
Wind_Direction
261 262 263 263 260 265 278 270 268 270 274 281 282 276 274 280 274 270 266 265 274 273 272 272 284 279 282 278 275 273 277 281 283 290 286 284 283 292 287 288 289 282 289
262 265 267 271 270 269 267 264 265 268 270 280 277 275 282 275 276 272 271 285 268 285 267 271 273 276 271 277 282 277 281 281 282 286 276 274 286 284 289 289 278 270 289
268 265 270 269 268 269 270 269 275 278 263 269 270 273 282 274 277 276 269 281 277 275 276 271 270 269 273 275 282 276 282 280 283 284 284 287 286 286 286 291 286 285 285
281 292 287 286 280 270 273 276 285 270 278 269 270 294 267 267 266 263 275 284 271 273 271 272 268 270 269 276 272 272 286 278 286 279 277 275 284 281 282 284 280 280 282
284 279 277 277 283 275 272 300 285 265 272 273 271 266 274 269 262 280 270 256 263 259 274 280 269 275 275 272 273 273 277 275 276 280 280 279 281 282 283 281 283 285 285
268 283 291 271 285 272 285 302 271 265 272 266 277 273 269 266 270 255 249 257 243 247 251 275 282 264 281 265 278 281 275 276 292 278 279 280 281 282 282 283 284 284 277
286 285 275 283 289 297 291 270 295 272 280 278 262 260 262 262 258 259 253 243 240 249 246 245 247 277 249 249 254 275 285 271 272 273 274 288 279 274 280 279 276 282 274
287 291 278 290 286 297 308 299 294 272 268 267 285 266 254 263 236 240 223 239 244 235 260 246 256 247 245 257 253 269 270 253 280 261 279 271 273 271 276 277 280 279 281
286 287 286 288 287 297 283 297 282 276 267 265 261 256 243 239 250 241 220 247 214 239 241 267 273 264 228 268 240 242 240 265 246 253 263 270 274 273 276 277 281 278 267
286 286 280 285 295 294 298 299 282 262 263 265 254 256 251 245 228 221 245 227 244 210 215 235 233 247 244 252 243 239 258 249 253 262 275 269 271 282 269 253 273 277 271
281 279 283 285 295 298 297 292 283 259 272 257 261 261 250 226 234 232 227 227 221 236 249 260 225 224 257 257 250 231 239 247 260 269 276 261 262 279 273 271 273 270 273
281 282 283 288 289 292 297 282 274 262 262 267 264 220 220 222 219 230 229 238 223 227 215 245 250 220 210 211 257 248 237 257 258 265 257 274 264 267 269 284 246 271 267
281 277 286 284 292 288 296 273 259 265 264 261 240 219 212 227 218 217 234 220 218 243 243 243 248 236 249 225 232 244 228 247 269 266 265 264 264 268 271 273 248 265 264
272 280 283 288 291 283 279 264 256 261 260 261 225 245 204 229 216 231 213 235 233 224 228 234 237 227 210 242 260 265 264 284 265 279 261 266 269 268 272 233 276 246 252
275 282 286 287 284 283 267 261 258 258 258 258 221 240 212 229 217 220 225 236 225 232 229 251 263 242 252 233 242 258 264 261 268 263 267 275 269 259 226 243 259 246 260
283 286 289 289 281 268 259 252 256 256 259 248 220 239 237 229 226 217 247 215 252 251 241 240 230 231 254 248 257 261 289 252 251 262 260 274 293 266 234 245 257 254 260
280 272 288 280 268 254 249 253 255 257 261 246 224 232 227 230 227 208 233 228 249 248 225 240 251 252 247 251 279 238 255 254 252 259 263 307 290 241 237 243 245 249 257
286 280 279 261 245 254 243 248 256 261 257 242 231 219 229 232 228 219 227 240 236 238 243 254 249 256 250 256 264 253 272 256 281 262 270 309 293 276 238 247 248 262 264
281 272 260 235 239 242 245 252 257 265 227 240 229 221 226 230 232 215 236 230 240 249 246 251 246 258 252 259 263 263 244 276 247 269 302 267 269 256 248 239 253 254 259
270 255 242 227 234 239 250 251 260 235 231 239 225 230 232 231 231 227 224 231 236 240 238 248 245 252 253 252 256 251 247 269 257 261 265 304 298 294 264 252 256 259 266
254 224 214 227 236 246 247 255 247 227 229 234 230 229 232 226 227 216 216 226 233 238 244 251 252 252 250 261 259 258 271 256 258 258 288 273 288 274 288 283 272 274 271
229 206 223 227 237 243 247 251 214 238 234 220 224 233 231 209 204 203 212 218 229 236 241 243 242 244 245 264 235 260 247 282 247 257 291 296 300 332 263 270 277 291 282
254 222 219 237 241 242 253 228 212 234 236 212 223 230 214 209 205 202 205 213 221 240 237 239 242 235 255 262 262 240 259 266 270 264 267 263 262 272 316 286 270 275 292
221 217 228 225 241 242 243 206 221 223 217 205 216 219 194 196 204 195 209 214 216 221 235 237 248 238 256 255 262 263 243 273 282 272 262 266 296 299 289 295 279 282 282
254 215 225 248 236 234 239 206 237 211 213 207 213 205 213 202 202 200 204 213 222 226 225 241 247 256 260 265 267 272 276 273 288 295 296 261 266 299 300 290 296 284 295
214 227 218 245 235 232 229 208 221 223 232 217 210 224 204 205 210 207 204 213 225 228 240 246 250 255 258 259 271 273 263 266 277 266 263 283 273 284 295 275 279 286 289